This demonstration page uses our WeatherBlox Daily Observations layout. Learn more.

Left ArrowRight Arrow

39.51506, -84.39828

Hourly Observations for September 26, 2015

Temp ( °F °C ) Dew Point ( °F °C ) Humidity (%) Winds ( mph kmh ) Pressure ( in mb ) Visibility ( mi km ) Precip ( " mm )
12:15 am 00:15 Clear 69 20.8 54 12 57 57 ESE 3 6 30.21 1023 10 16.0934 0 0
12:35 am 00:35 Clear 65 18.6 53 11.9 65 65 Calm 30.21 1023 10 16.0934 0 0
12:55 am 00:55 Clear 65 18.5 54 12 66 66 Calm 30.21 1023 10 16.0934 0 0
1:15 am 01:15 Clear 63 17.2 54 12 72 72 Calm 30.24 1024 10 16.0934 0 0
1:35 am 01:35 Clear 63 17.2 54 12.1 72 72 Calm 30.21 1023 10 16.0934 0 0
1:55 am 01:55 Clear 63 17 54 12.4 74 74 NNE 3 6 30.21 1023 10 16.0934 0 0
2:15 am 02:15 Clear 63 17 54 12.2 74 74 NNE 3 6 30.21 1023 10 16.0934 0 0
2:35 am 02:35 Partly Cloudy 64 18 55 12.8 72 72 NE 6 9 30.18 1022 10 16.0934 0 0
2:55 am 02:55 Mostly Cloudy 64 18 55 12.6 71 71 ENE 7 11 30.18 1022 10 16.0934 0 0
3:15 am 03:15 Cloudy with Drizzle 64 18 55 13 73 73 ENE 7 11 30.18 1022 10 16.0934 0 0
3:35 am 03:35 Cloudy with Drizzle 64 18 57 13.7 76 76 ENE 3 6 30.18 1022 10 16.0934 0 0
3:55 am 03:55 Cloudy with Light Rain 63 17 56 13.4 79 79 Calm 30.21 1023 10 16.0934 0 0
4:15 am 04:15 Cloudy with Light Rain 62 16.6 57 13.8 84 84 NNE 3 6 30.21 1023 10 16.0934 0 0
4:35 am 04:35 Cloudy with Drizzle 62 16.6 57 13.8 84 84 NNE 3 6 30.21 1023 10 16.0934 0 0
4:55 am 04:55 Cloudy with Light Rain 62 16.6 57 13.7 83 83 NNE 3 6 30.21 1023 10 16.0934 0 0
5:15 am 05:15 Cloudy with Drizzle 62 16.6 57 13.9 84 84 NNE 5 7 30.21 1023 10 16.0934 0 0
5:35 am 05:35 Cloudy 62 16.6 57 13.8 84 84 NNE 5 7 30.21 1023 10 16.0934 0 0
5:55 am 05:55 Cloudy 62 16.6 56 13.6 83 83 Calm 30.21 1023 10 16.0934 0 0
6:15 am 06:15 Cloudy 62 16.6 57 13.8 84 84 Calm 30.21 1023 10 16.0934 0 0
6:35 am 06:35 Cloudy 62 16.6 57 13.8 84 84 Calm 30.21 1023 10 16.0934 0 0
6:55 am 06:55 Mostly Cloudy 62 16.6 57 13.8 84 84 Calm 30.21 1023 10 16.0934 0 0
7:15 am 07:15 Mostly Cloudy 62 16.6 56 13.6 83 83 Calm 30.24 1024 10 16.0934 0 0
7:35 am 07:35 Mostly Cloudy 62 16.8 56 13.5 81 81 NE 5 7 30.24 1024 10 16.0934 0 0
7:55 am 07:55 Cloudy 63 17 56 13.5 80 80 Calm 30.24 1024 10 16.0934 0 0
8:15 am 08:15 Cloudy 63 17.1 56 13.3 78 78 ENE 7 11 30.24 1024 10 16.0934 0 0
8:35 am 08:35 Cloudy 63 17 56 13.5 80 80 ENE 6 9 30.24 1024 10 16.0934 0 0
8:55 am 08:55 Cloudy with Drizzle 63 17 57 13.7 81 81 ENE 6 9 30.24 1024 10 16.0934 0 0
9:15 am 09:15 Cloudy with Light Rain 62 16.8 57 14 84 84 ENE 5 7 30.24 1024 10 16.0934 0 0
9:35 am 09:35 Cloudy with Drizzle 63 17.1 57 14.1 83 83 ENE 6 9 30.24 1024 10 16.0934 0 0
9:55 am 09:55 Cloudy 64 18 58 14.6 81 81 Calm 30.21 1023 10 16.0934 0 0
10:15 am 10:15 Cloudy 69 20.4 61 16.2 77 77 Calm 30.21 1023 10 16.0934 0 0
10:35 am 10:35 Cloudy 69 20.8 60 15.5 72 72 E 7 11 30.21 1023 10 16.0934 0 0
10:55 am 10:55 Cloudy 69 20.8 60 15.4 71 71 E 6 9 30.21 1023 10 16.0934 0 0
11:15 am 11:15 Cloudy 69 20.8 58 14.7 68 68 ESE 7 11 30.21 1023 10 16.0934 0 0
11:35 am 11:35 Cloudy 74 23.2 59 15.1 60 60 E 7 11 30.21 1023 10 16.0934 0 0
11:55 am 11:55 Cloudy 70 21 57 13.9 64 64 ENE 5 7 30.21 1023 10 16.0934 0 0
12:15 pm 12:15 Cloudy 74 23.1 58 14.7 59 59 ESE 10 17 30.21 1023 10 16.0934 0 0
12:35 pm 12:35 Cloudy 72 22.4 57 13.7 58 58 SE 10 17 30.21 1023 10 16.0934 0 0
12:55 pm 12:55 Cloudy 72 22.3 56 13.5 58 58 E 9 15 30.21 1023 10 16.0934 0 0
1:15 pm 13:15 Cloudy 74 23.6 58 14.5 57 57 E 12 19 30.21 1023 10 16.0934 0 0
1:35 pm 13:35 Cloudy 74 23.6 58 14.5 57 57 ESE 9 15 30.21 1023 10 16.0934 0 0
1:55 pm 13:55 Cloudy 74 23.6 58 14.6 57 57 ESE 8 13 30.21 1023 10 16.0934 0 0
2:15 pm 14:15 Cloudy 74 23.6 58 14.5 57 57 ESE 8 13 30.18 1022 10 16.0934 0 0
2:35 pm 14:35 Cloudy 74 23.6 58 14.5 57 57 E 13 20 30.18 1022 10 16.0934 0 0
2:55 pm 14:55 Cloudy 74 23.6 58 14.7 58 58 SE 7 11 30.18 1022 10 16.0934 0 0
3:15 pm 15:15 Cloudy 74 23.6 58 14.7 58 58 SE 10 17 30.18 1022 10 16.0934 0 0
3:35 pm 15:35 Cloudy 74 23.6 60 15.3 60 60 SE 10 17 30.18 1022 10 16.0934 0 0
3:55 pm 15:55 Cloudy 74 23.6 59 15.1 59 59 ESE 10 17 30.18 1022 10 16.0934 0 0
4:15 pm 16:15 Cloudy 73 22.7 60 15.4 64 64 E 10 17 30.18 1022 10 16.0934 0 0
4:35 pm 16:35 Cloudy 69 20.8 60 15.3 71 71 E 12 19 30.18 1022 10 16.0934 0 0
4:55 pm 16:55 Cloudy 69 20.8 59 15.1 70 70 E 8 13 30.18 1022 10 16.0934 0 0
5:15 pm 17:15 Cloudy 69 20.8 61 16.3 76 76 E 8 13 30.18 1022 7 11.26538 0 0
5:35 pm 17:35 Cloudy 69 20.8 61 16.2 75 75 E 12 19 30.18 1022 10 16.0934 0 0
5:55 pm 17:55 Cloudy 69 20.8 62 16.5 77 77 E 9 15 30.18 1022 10 16.0934 0 0
6:15 pm 18:15 Cloudy 69 20.8 62 16.8 78 78 E 9 15 30.18 1022 10 16.0934 0 0
6:35 pm 18:35 Cloudy 69 20.8 62 16.9 78 78 E 9 15 30.18 1022 10 16.0934 0 0
6:55 pm 18:55 Cloudy 69 20.8 63 17.3 80 80 E 8 13 30.18 1022 10 16.0934 0 0
7:15 pm 19:15 Cloudy 67 19.5 61 16.1 81 81 ENE 10 17 30.18 1022 10 16.0934 0 0
7:35 pm 19:35 Cloudy 67 19.5 61 16.2 81 81 E 9 15 30.18 1022 10 16.0934 0 0
7:55 pm 19:55 Cloudy 67 19.5 61 16.3 82 82 E 10 17 30.18 1022 10 16.0934 0 0
8:15 pm 20:15 Cloudy 67 19.5 62 16.5 83 83 E 8 13 30.18 1022 10 16.0934 0 0
8:35 pm 20:35 Cloudy 67 19.5 62 16.5 83 83 E 9 15 30.18 1022 10 16.0934 0 0
8:55 pm 20:55 Cloudy 67 19.5 61 16.2 81 81 E 12 19 30.18 1022 10 16.0934 0 0
9:15 pm 21:15 Cloudy 69 20.4 63 17 81 81 E 7 11 30.21 1023 10 16.0934 0 0
9:35 pm 21:35 Cloudy 69 20.8 63 17.3 80 80 ESE 8 13 30.21 1023 10 16.0934 0 0
9:55 pm 21:55 Cloudy 69 20.8 63 17.3 80 80 E 8 13 30.21 1023 10 16.0934 0 0
10:15 pm 22:15 Cloudy 69 20.5 63 17.1 81 81 E 6 9 30.21 1023 10 16.0934 0 0
10:35 pm 22:35 Cloudy 69 20.8 63 17.3 80 80 E 8 13 30.21 1023 10 16.0934 0 0
10:55 pm 22:55 Cloudy 69 20.8 63 17.2 80 80 ESE 9 15 30.21 1023 10 16.0934 0 0
11:15 pm 23:15 Cloudy 69 20.8 63 17.3 80 80 ESE 9 15 30.21 1023 10 16.0934 0 0
11:35 pm 23:35 Cloudy 69 20.8 63 17.1 79 79 ESE 9 15 30.21 1023 10 16.0934 0 0
11:55 pm 23:55 Cloudy 69 20.8 63 17 79 79 ESE 8 13 30.21 1023 10 16.0934 0 0

Powered by AerisWeather